This is the latest recevied weather packets stored in our database for station/object KC3DGM. If no packets are shown the sender has not sent any weather packets the latest 10 day(s).
| Time | Temp. | Humidity | Pressure | Rain* | Wind** | Luminosity | Snow |
|---|---|---|---|---|---|---|---|
| 1777651297 | 6.67° C | 91% | 983.7 hPa | 1.27 mm | - | 102 W/m² | - |
| 1777650994 | 6.67° C | 91% | 983.6 hPa | 1.27 mm | - | 69 W/m² | - |
| 1777650691 | 6.67° C | 92% | 983.7 hPa | 0 mm | - | 103 W/m² | - |
| 1777650388 | 6.67° C | 92% | 983.9 hPa | 0 mm | - | 121 W/m² | - |
| 1777650085 | 6.67° C | 93% | 984.2 hPa | 0 mm | - | 120 W/m² | - |
| 1777649783 | 6.67° C | 94% | 983.7 hPa | 0 mm | - | 109 W/m² | - |
| 1777649479 | 6.11° C | 94% | 983.9 hPa | 0 mm | - | 58 W/m² | - |
| 1777649176 | 6.11° C | 95% | 984.1 hPa | 0 mm | - | 52 W/m² | - |
| 1777648873 | 6.11° C | 95% | 983.9 hPa | 0 mm | - | 78 W/m² | - |
| 1777648267 | 6.11° C | 95% | 983.9 hPa | 1.78 mm | - | 60 W/m² | - |
| 1777647963 | 6.11° C | 95% | 984.1 hPa | 1.78 mm | - | 58 W/m² | - |
| 1777647659 | 6.11° C | 94% | 984.1 hPa | 1.27 mm | - | 57 W/m² | - |
| 1777647355 | 6.11° C | 94% | 984 hPa | 1.27 mm | - | 57 W/m² | - |
| 1777647053 | 5.56° C | 94% | 984.1 hPa | 0 mm | - | 51 W/m² | - |
| 1777646750 | 5.56° C | 95% | 984.3 hPa | 0 mm | - | 52 W/m² | - |
| 1777646444 | 5.56° C | 95% | 984.4 hPa | 0 mm | - | 62 W/m² | - |
| 1777646141 | 5.56° C | 95% | 984 hPa | 0 mm | - | 67 W/m² | - |
| 1777645838 | 5.56° C | 95% | 983.9 hPa | 0 mm | - | 45 W/m² | - |
| 1777645536 | 5.56° C | 93% | 983.8 hPa | 1.78 mm | - | 35 W/m² | - |
| 1777645232 | 5.56° C | 93% | 983.9 hPa | 1.78 mm | - | 49 W/m² | - |
| 1777644927 | 5.56° C | 94% | 983.9 hPa | 0 mm | - | 73 W/m² | - |
| 1777644626 | 5.56° C | 94% | 984.1 hPa | 1.78 mm | - | 83 W/m² | - |
| 1777644321 | 5.56° C | 94% | 984.2 hPa | 0 mm | - | 75 W/m² | - |
| 1777644017 | 5° C | 94% | 984.2 hPa | 0 mm | - | 67 W/m² | - |
| 1777643714 | 5° C | 93% | 984.4 hPa | 0 mm | - | 25 W/m² | - |
* Rain latest hour (hover to see other rain measurements)
** Current wind speed in m/s (hover to see current wind gust speed)